Location: Betra
(48.4113°N, 8.6634°E)
Time: 17:12:37
(UTC+00:00)

Resurs 1-4 Rocket - Pass Details

Date: 13 August 2024
Orbit: 798 x 813 km, 98.7° (Epoch: 06 September)

Event Time Altitude Azimuth Distance (km) Brightness Sun altitude
Rises 02:58:54 0° 5° (N) 3,345 6.0 -11.9°
Reaches altitude 10° 03:01:41 10° 351° (N) 2,407 5.0 -11.5°
Maximum altitude 03:05:43 23° 301° (WNW) 1,685 3.6 -11.0°
Enters shadow 03:09:20 12° 255° (WSW) 2,272 3.9 -10.5°
